Change the Weather History Date:

Wednesday, January 15, 2014

  Actual Average Record
Temperature  
Mean Temperature 34 °F -  
Max Temperature 37 °F 27 °F 42 °F (2001)
Min Temperature 32 °F 17 °F -6 °F (1969)
Degree Days  
Heating Degree Days 30    
Moisture  
Dew Point 31 °F    
Average Humidity 86    
Maximum Humidity 100    
Minimum Humidity 70    
Precipitation  
Precipitation 0.51 in - - ()
Sea Level Pressure  
Sea Level Pressure 29.81 in    
Wind  
Wind Speed 2 mph (NNE)    
Max Wind Speed 7 mph    
Max Gust Speed -    
Visibility 5 miles    
Events      
Averages and records for this station are not official NWS values.
T = Trace of Precipitation, MM = Missing Value Source: NWS Daily Summary

Daily Weather History Graph

Daily Weather History Graph

Search for Another Location

Airport or City:

Trip Planner

Search our weather history database for the weather conditions in past years. The results will help you decide how hot, cold, wet, or windy it might be!

Date:

Astronomy

Jan. 15, 2014 Rise Set
Actual Time 9:41 AM AKST 4:08 PM AKST
Civil Twilight 8:45 AM AKST 5:04 PM AKST
Nautical Twilight 7:49 AM AKST 6:00 PM AKST
Astronomical Twilight 6:57 AM AKST 6:52 PM AKST
Moon 4:36 PM AKST (1/15) 8:44 AM AKST (1/15)
Length of Visible Light 8h 18m
Length of Day
6h 27m
Full, 100% of the Moon is Illuminated
Jan 15
Full
Jan 15
Full
Jan 23
Last Quarter
Jan 30
New
Feb 6
First Quarter

Hourly Weather History & Observations

Time (AKST) Temp. Windchill Dew Point Humidity Pressure Visibility Wind Dir Wind Speed Gust Speed Precip Events Conditions
12:16 AM 37.4 °F 34.9 °F 33.8 °F 87% 29.64 in 10.0 mi SE 3.5 mph - N/A   Overcast
12:36 AM 35.6 °F 32.8 °F 30.2 °F 81% 29.67 in 9.0 mi North 3.5 mph - N/A   Overcast
12:56 AM 35.6 °F 31.7 °F 33.8 °F 93% 29.68 in 10.0 mi NNE 4.6 mph - N/A   Mostly Cloudy
1:16 AM 37.4 °F - 33.8 °F 87% 29.70 in 10.0 mi Calm Calm - N/A   Overcast
1:36 AM 37.4 °F 33.8 °F 30.2 °F 75% 29.72 in 10.0 mi North 4.6 mph - N/A   Overcast
1:56 AM 37.4 °F 33.8 °F 32.0 °F 81% 29.73 in 10.0 mi NNE 4.6 mph - N/A   Overcast
2:16 AM 35.6 °F 29.9 °F 30.2 °F 81% 29.75 in 10.0 mi East 6.9 mph - N/A   Overcast
2:36 AM 35.6 °F 29.9 °F 30.2 °F 81% 29.77 in 10.0 mi North 6.9 mph - N/A   Overcast
2:56 AM 37.4 °F 34.9 °F 30.2 °F 75% 29.78 in 10.0 mi NE 3.5 mph - N/A   Overcast
3:16 AM 37.4 °F 33.8 °F 28.4 °F 70% 29.79 in 10.0 mi NNE 4.6 mph - N/A   Overcast
3:36 AM 35.6 °F 32.8 °F 30.2 °F 81% 29.80 in 10.0 mi West 3.5 mph - N/A   Overcast
3:56 AM 35.6 °F - 30.2 °F 81% 29.80 in 10.0 mi Calm Calm - N/A   Overcast
4:16 AM 33.8 °F - 30.2 °F 87% 29.81 in 10.0 mi Calm Calm - N/A   Overcast
4:36 AM 33.8 °F 30.8 °F 32.0 °F 93% 29.81 in 10.0 mi WNW 3.5 mph - N/A   Overcast
4:56 AM 35.6 °F - 30.2 °F 81% 29.81 in 10.0 mi Calm Calm - N/A   Overcast
5:16 AM 35.6 °F 31.7 °F 30.2 °F 81% 29.82 in 10.0 mi SSE 4.6 mph - N/A   Overcast
5:36 AM 33.8 °F - 30.2 °F 87% 29.82 in 10.0 mi Calm Calm - N/A   Overcast
5:56 AM 33.8 °F - 28.4 °F 81% 29.82 in 10.0 mi Calm Calm - N/A   Overcast
6:16 AM - - - N/A% 29.81 in 10.0 mi Calm Calm - N/A   Overcast
6:36 AM 35.6 °F - 28.4 °F 75% 29.81 in 10.0 mi Calm Calm - N/A   Overcast
6:56 AM 35.6 °F - 28.4 °F 75% 29.81 in 10.0 mi Calm Calm - N/A   Overcast
7:16 AM 35.6 °F 31.7 °F 28.4 °F 75% 29.81 in 10.0 mi SW 4.6 mph - N/A   Overcast
7:36 AM 35.6 °F 30.7 °F 30.2 °F 81% 29.82 in 10.0 mi North 5.8 mph - N/A   Overcast
7:56 AM 37.4 °F - 28.4 °F 70% 29.82 in 10.0 mi Calm Calm - N/A   Overcast
8:16 AM 35.6 °F - 30.2 °F 81% 29.84 in 10.0 mi Calm Calm - N/A   Overcast
8:36 AM 33.8 °F - 33.8 °F 100% 29.84 in 5.0 mi Calm Calm - 0.01 in   Overcast
8:56 AM 33.8 °F - 30.2 °F 87% 29.83 in 3.0 mi Calm Calm - 0.02 in   Overcast
9:16 AM 33.8 °F - 32.0 °F 93% 29.82 in 3.0 mi Calm Calm - 0.01 in   Overcast
9:36 AM 32.0 °F - 30.2 °F 93% 29.83 in 3.0 mi Calm Calm - 0.02 in   Overcast
9:56 AM 33.8 °F - 32.0 °F 93% 29.82 in 1.5 mi Calm Calm - 0.03 in   Overcast
10:16 AM 33.8 °F - 30.2 °F 87% 29.82 in 1.5 mi Calm Calm - N/A   Overcast
10:36 AM 33.8 °F - 30.2 °F 87% 29.80 in 1.5 mi Calm Calm - 0.01 in   Overcast
10:56 AM 33.8 °F - 30.2 °F 87% 29.81 in 2.0 mi Calm Calm - 0.01 in   Overcast
11:16 AM 33.8 °F - 32.0 °F 93% 29.81 in 2.0 mi Calm Calm - 0.01 in   Overcast
11:36 AM 33.8 °F - 28.4 °F 81% 29.80 in 2.0 mi Calm Calm - 0.02 in   Overcast
11:56 AM 32.0 °F - 28.4 °F 87% 29.80 in 0.5 mi Calm Calm - 0.04 in   Overcast
12:16 PM 33.8 °F - 28.4 °F 81% 29.80 in 0.5 mi Calm Calm - 0.02 in   Overcast
12:36 PM 33.8 °F - 30.2 °F 87% 29.80 in 0.5 mi Calm Calm - 0.03 in   Overcast
12:56 PM 33.8 °F - 30.2 °F 87% 29.79 in 0.2 mi Calm Calm - 0.05 in   Overcast
1:16 PM 33.8 °F - 32.0 °F 93% 29.78 in 0.2 mi Calm Calm - 0.03 in   Overcast
1:36 PM 33.8 °F - 32.0 °F 93% 29.78 in 0.2 mi Calm Calm - 0.04 in   Overcast
1:56 PM 33.8 °F - 30.2 °F 87% 29.78 in 1.5 mi Calm Calm - 0.05 in   Overcast
2:16 PM 33.8 °F - 32.0 °F 93% 29.78 in 1.5 mi Calm Calm - 0.01 in   Overcast
2:36 PM 33.8 °F - 30.2 °F 87% 29.79 in 1.5 mi Calm Calm - 0.04 in   Overcast
2:56 PM 33.8 °F - 30.2 °F 87% 29.79 in 1.0 mi Calm Calm - 0.07 in   Overcast
3:16 PM 33.8 °F - 30.2 °F 87% 29.80 in 1.0 mi Calm Calm - 0.03 in   Overcast
3:36 PM 33.8 °F - 30.2 °F 87% 29.81 in 1.0 mi Calm Calm - 0.07 in   Overcast
3:56 PM 33.8 °F - 30.2 °F 87% 29.80 in 0.8 mi Calm Calm - 0.09 in   Overcast
4:16 PM 33.8 °F - 30.2 °F 87% 29.81 in 0.8 mi Calm Calm - 0.02 in   Overcast
4:36 PM 33.8 °F - 30.2 °F 87% 29.83 in 0.8 mi Calm Calm - 0.05 in   Overcast
4:56 PM 32.0 °F - 30.2 °F 93% 29.83 in 0.5 mi Calm Calm - 0.07 in   Overcast
5:16 PM 33.8 °F - 30.2 °F 87% 29.83 in 0.5 mi Calm Calm - 0.02 in   Overcast
5:36 PM 33.8 °F - 30.2 °F 87% 29.84 in 0.5 mi Calm Calm - 0.04 in   Overcast
5:56 PM 33.8 °F - 30.2 °F 87% 29.85 in 1.0 mi Calm Calm - 0.05 in   Overcast
6:16 PM 33.8 °F - 28.4 °F 81% 29.84 in 1.0 mi Calm Calm - 0.01 in   Overcast
6:36 PM 33.8 °F - 30.2 °F 87% 29.85 in 1.0 mi Calm Calm - 0.02 in   Overcast
6:56 PM 33.8 °F - 28.4 °F 81% 29.86 in 0.8 mi Calm Calm - 0.02 in   Overcast
7:16 PM 33.8 °F - 32.0 °F 93% 29.86 in 0.8 mi Calm Calm - 0.01 in   Overcast
7:36 PM 33.8 °F - 30.2 °F 87% 29.87 in 0.8 mi Calm Calm - 0.01 in   Overcast
8:16 PM 32.0 °F - 30.2 °F 93% 29.87 in 0.8 mi Calm Calm - N/A   Overcast
8:36 PM 33.8 °F - 30.2 °F 87% 29.87 in 0.8 mi Calm Calm - N/A   Overcast
8:56 PM 33.8 °F 30.8 °F 32.0 °F 93% 29.86 in 1.0 mi NNE 3.5 mph - N/A   Overcast
9:16 PM 33.8 °F - 30.2 °F 87% 29.87 in 1.0 mi Calm Calm - N/A   Overcast
9:36 PM 33.8 °F - 32.0 °F 93% 29.86 in 1.0 mi Calm Calm - N/A   Overcast
9:56 PM 33.8 °F - 30.2 °F 87% 29.85 in 1.5 mi Calm Calm - N/A   Overcast
10:16 PM 33.8 °F - 30.2 °F 87% 29.84 in 5.0 mi Calm Calm - N/A   Overcast
10:36 PM 33.8 °F - 33.8 °F 100% 29.84 in 7.0 mi Calm Calm - N/A   Overcast
10:56 PM 33.8 °F - 30.2 °F 87% 29.84 in 5.0 mi Calm Calm - N/A   Overcast
11:16 PM 33.8 °F - 32.0 °F 93% 29.84 in 3.0 mi Calm Calm - N/A   Overcast
11:36 PM 33.8 °F - 30.2 °F 87% 29.82 in 4.0 mi Calm Calm - N/A   Overcast
11:56 PM 33.8 °F - 32.0 °F 93% 29.80 in 2.5 mi Calm Calm - N/A   Overcast